EUTELSAT 5 WEST B (EGN*)

Last updated on Sat Sep 05 2026 00:03:32 GMT+0000 (Coordinated Universal Time)

1 44624U 19067A 26247.59495852 -.00000049 00000+0 00000+0 0 9993 2 44624 0.0934 309.0134 0003197 221.0121 22.8732 1.00271712 25223
UTC large
Height (km)
Speed (km/s)
/
Latitude / Longitude
Inclination (degrees)
Orbital Period (minutes)
Azimuth
Elevation
Range (km)
Doppler Factor

Next 0 passes for location: London (51.5072 / 0.1276)

No passes found over London.
EUTELSAT 5 WEST B (EGN*)